Regional Weather Roundup
Issued by NWS

Home | Current Version | Previous Version | Graphics & Text | Print | Product List | Glossary On
Versions: 1 2 3 4 5 6 7 8 9 10 11 12 13 14 15 16 17 18 19 20 21 22 23 24 25 26 27 28 29 30 31 32 33 34 35 36 37 38 39 40 41 42 43 44 45 46 47 48 49 50
000
ASUS43 KOAX 271202
RWRNE

WEATHER ROUNDUP FOR NEBRASKA
NATIONAL WEATHER SERVICE OMAHA NE
600 AM CST SAT DEC 27 2014

NOTES: SATELLITE DATA IS BEING USED TO AUGMENT CLOUD COVER ABOVE
       12000 FEET.
       "FAIR" INDICATES FEW OR NO CLOUDS BELOW 12,000 FEET WITH NO
       SIGNIFICANT WEATHER AND/OR OBSTRUCTIONS TO VISIBILITY.

  * THESE STATIONS DO NOT REPORT WEATHER SUCH AS RAIN...SNOW OR FOG.

NEZ001>004-019>022-054>056-271300-
NEBRASKA PANHANDLE

CITY           SKY/WX    TMP DP  RH WIND       PRES   REMARKS
SCOTTSBLUFF    PTCLDY    -1  -4  87 NW9       30.14S WCI -16
6HR MIN TEMP:  -1; 6HR MAX TEMP:  15;

ALLIANCE       CLEAR     -2  -6  83 W8        30.11S WCI -17
6HR MIN TEMP:  -2; 6HR MAX TEMP:  18;

CHADRON        MOCLDY     9   6  88 SW8       30.14F WCI  -3
6HR MIN TEMP:   5; 6HR MAX TEMP:  19;

KIMBALL        PTCLDY     2  -3  80 W9        30.07R WCI -13
SIDNEY         PTCLDY     1  -4  79 NW15      30.11S WCI -18
6HR MIN TEMP:   0; 6HR MAX TEMP:  15; 6HR PCP: TRACE;

$$

NEZ057>060-069>072-079>082-271300-
SOUTHWEST NEBRASKA

CITY           SKY/WX    TMP DP  RH WIND       PRES   REMARKS
NORTH PLATTE   PTCLDY    -3  -5  90 NW8       30.17F WCI -18
6HR MIN TEMP:  -7; 6HR MAX TEMP:  18; 6HR PCP: TRACE;

IMPERIAL       CLEAR      7   2  80 W10       30.16S WCI  -8
6HR MIN TEMP:   5; 6HR MAX TEMP:  15;

LEXINGTON      CLEAR      6   3  86 NW6       30.18S WCI  -4
MCCOOK         CLOUDY     8   5  87 SW6       30.20R WCI  -2
6HR MIN TEMP:   8; 6HR MAX TEMP:  19;

$$

NEZ005>010-023>029-035>040-094-271300-
NORTH CENTRAL NEBRASKA

CITY           SKY/WX    TMP DP  RH WIND       PRES   REMARKS
VALENTINE      PTCLDY     9   4  80 W8        30.15S WCI  -3
6HR MIN TEMP:   9; 6HR MAX TEMP:  17; 6HR PCP:  0.01;

AINSWORTH      PTCLDY    10   7  87 W6        30.15S WCI   0
BROKEN BOW     PTCLDY    11   7  84 W8        30.16R WCI  -1
6HR MIN TEMP:  11; 6HR MAX TEMP:  20; 6HR PCP:  0.01;

ORD            CLEAR     12   8  84 NW7       30.17R WCI   1
6HR MIN TEMP:  11; 6HR MAX TEMP:  19; 6HR PCP: TRACE;

$$

NEZ041-046>049-061>064-073>077-083>087-271300-
SOUTH CENTRAL NEBRASKA

CITY           SKY/WX    TMP DP  RH WIND       PRES   REMARKS
GRAND ISLAND   PTCLDY     8   5  87 W7        30.20R WCI  -3
6HR MIN TEMP:   7; 6HR MAX TEMP:  21; 6HR PCP: TRACE;

AURORA         CLEAR     14  12  90 NW13      30.17S WCI   0
HASTINGS       CLEAR     12   8  84 NW10      30.19R WCI  -1
6HR MIN TEMP:  11; 6HR MAX TEMP:  21; 6HR PCP: TRACE;

HEBRON         CLEAR     18  14  84 NW9       30.20R WCI   7
HOLDREGE       CLEAR     10   8  88 NW6       30.18S WCI   1
KEARNEY *      CLEAR      7   3  85 W9        30.18S WCI  -7
YORK           CLEAR     16  12  86 NW13      30.17R WCI   2
$$

NEZ011>018-030>034-042>045-271300-
NORTHEAST NEBRASKA

CITY           SKY/WX    TMP DP  RH WIND       PRES   REMARKS
NORFOLK        PTCLDY    14  11  87 W9        30.17R WCI   2
6HR MIN TEMP:  14; 6HR MAX TEMP:  23; 6HR PCP:  0.03;

ALBION         CLEAR     11   8  85 NW8       30.18R WCI  -1
BLAIR          FLURRIES  23  19  85 NW13      30.13S WCI  11
COLUMBUS *     CLEAR     16   7  67 NW13      30.18R WCI   2
FREMONT        CLEAR     20  17  88 W10       30.17R WCI   8
TEKAMAH        MOCLDY    23  18  81 NW15G25   30.16R WCI  10
6HR MIN TEMP:  23; 6HR MAX TEMP:  29; 6HR PCP:  0.01;

WAYNE          CLEAR     16  12  86 NW9       30.17R WCI   4
$$

NEZ050>053-065>068-078-088>093-271300-
SOUTHEAST NEBRASKA

CITY           SKY/WX    TMP DP  RH WIND       PRES   REMARKS
LINCOLN        CLEAR     20  16  84 NW12      30.19R WCI   8
6HR MIN TEMP:  20; 6HR MAX TEMP:  28; 6HR PCP:  0.01;

OMAHA EPPLEY   FLURRIES  25  20  81 NW15      30.15R WCI  13
6HR MIN TEMP:  25; 6HR MAX TEMP:  31; 6HR PCP:  0.01;

BEATRICE       PTCLDY    20  17  87 NW13      30.18R WCI   8
FALLS CITY     CLOUDY    28  23  81 NW14      30.16R WCI  17
6HR MIN TEMP:  28; 6HR MAX TEMP:  33;

NEBRASKA CITY  CLOUDY    25  23  91 NW10      30.15R WCI  15
$$

NEZ044-045-051>053-067-271300-
OMAHA AREA

CITY           SKY/WX    TMP DP  RH WIND       PRES   REMARKS
OMAHA EPPLEY   FLURRIES  25  20  81 NW15      30.15R WCI  13
6HR MIN TEMP:  25; 6HR MAX TEMP:  31; 6HR PCP:  0.01;

BLAIR          FLURRIES  23  19  85 NW13      30.13S WCI  11
FREMONT        CLEAR     20  17  88 W10       30.17R WCI   8
MILLARD        PTCLDY    24  19  82 NW9       30.16R WCI  14
OFFUTT AFB     CLOUDY    25  20  83 NW16      30.14R WCI  12
WAHOO          FAIR      21  16  83 NW10      30.17R WCI   9
$$


USA.gov is the U.S. government's official web portal to all federal, state and local government web resources and services.